Regional Weather Roundup
Issued by NWS

Home | Current Version | Previous Version | Graphics & Text | Print | Product List | Glossary On
Versions: 1 2 3 4 5 6 7 8 9 10 11 12 13 14 15 16 17 18 19 20 21 22 23 24 25 26 27 28 29 30 31 32 33 34 35 36 37 38 39 40 41 42 43 44 45 46 47 48 49 50
000
ASUS44 KMEG 122010
RWRTN
TENNESSEE HOURLY STATE WEATHER ROUNDUP
NATIONAL WEATHER SERVICE MEMPHIS TN
200 PM CST FRI FEB 12 2016

TNZ002-004-019-021-049-052-054-088>092-122100-
WEST TENNESSEE

CITY           SKY/WX    TMP DP  RH WIND       PRES   REMARKS
MEMPHIS INTL   MOSUNNY   53  29  39 NW13      30.25S
NWS MEMPHIS      N/A     51 N/A N/A MISG        N/A
JACKSON        SUNNY     48  27  44 NW16      30.23S
DYERSBURG      SUNNY     45  27  49 N10G21    30.27S
UNION CITY     MOSUNNY   41  28  60 N16       30.24S
PARIS          MOSUNNY   37  25  60 NW8       30.22S WCI  31
LEXINGTON      SUNNY     46  25  42 NW9       30.19S
$$

TNZ008-025-027-028-033-062-065-066-122100-
NORTH MIDDLE TENNESSEE

CITY           SKY/WX    TMP DP  RH WIND       PRES   REMARKS
NASHVILLE      CLOUDY    44  24  45 N10G18    30.17F
CLARKSVILLE    CLOUDY    39  27  62 NW13      30.20F WCI  31
SMYRNA         MOSUNNY   43  28  55 NW8       30.18F
COOKEVILLE     PTSUNNY   37  30  75 NW7       30.13S WCI  32
CROSSVILLE     CLOUDY    36  27  69 NW13      30.09F WCI  27
$$

TNZ061-075-076-078-094-096-097-122100-
SOUTH MIDDLE TENNESSEE

CITY           SKY/WX    TMP DP  RH WIND       PRES   REMARKS
FAYETTEVILLE   SUNNY     50  28  43 VRB7G15   30.12S
TULLAHOMA      PTSUNNY   46  25  42 N13       30.13S
WINCHESTER     CLOUDY    46  27  46 NW8       30.12F
MCMINNVILLE    PTSUNNY   43  30  61 N9        30.13S
COLUMBIA       MOSUNNY   48  28  46 NW8       30.14S
SHELBYVILLE    SUNNY     46  28  49 N15       30.15S
$$

TNZ017-018-042-046-047-122100-
NORTHEAST TENNESSEE

CITY           SKY/WX    TMP DP  RH WIND       PRES   REMARKS
TRI CITIES     FLURRIES  31  28  89 SW9       30.04F WCI  23
$$

TNZ012-013-036-069-073-074-122100-
CENTRAL EAST TENNESSEE

CITY           SKY/WX    TMP DP  RH WIND       PRES   REMARKS
KNOXVILLE      CLOUDY    34  30  85 SW10      30.11F WCI  26
OAK RIDGE      CLOUDY    37  32  82 W3        30.12F
GATLINBURG     CLOUDY    32  28  86 CALM      30.10S
MORRISTOWN     CLOUDY    32  30  93 W10       30.07S WCI  24
$$

TNZ083-085-099-122100-
SOUTHEAST TENNESSEE

CITY           SKY/WX    TMP DP  RH WIND       PRES   REMARKS
CHATTANOOGA    PTSUNNY   54  28  36 N10       30.09S
$$

SKY/WX REPORTED AS FAIR MEANS FEW OR NO CLOUDS BELOW
12 THOUSAND FEET.




USA.gov is the U.S. government's official web portal to all federal, state and local government web resources and services.